Date String (YYYY-MM-DD hh:mm:ss) UTC,Instrument flags,absolute air pressure of the measurement (hPa),sample flow rate (lpm),inlet stack bypass flow (lpm),air temperature of the measurement (°C),ambient temperature measured by the external sensor (°C),aerosol sample conditioner tube jacket temperature (°C),OPC LED temperature (°C),internal box temperature (°C),relative humidity of the measurement (%),span deviation,mass concentration of particles derived from Lorenz-Mie calculation of OPC scattering (μg/m³),mass concentration of particles derived from Lorenz-Mie calculation of OPC scattering (μg/m³),mass concentration of particles derived from Lorenz-Mie calculation of OPC scattering (μg/m³)
DateTimeUTC,F1_M11,P_M11,Q1_M11,Q2_M11,T1_M11,T2_M11,T3_M11,T4_M11,T5_M11,U1_M11,ZSPAN_M11,X0_M11,X2_M11,X1_M11
2023-12-02 20:00:00,SystemResetWarning,0822.4,5.01,000.00,018.8,018.0,000.0,027.2,020.0,8.3,0000.0,0001.24,0000.63,0000.47
2023-12-02 20:01:00,SystemResetWarning,0822.3,5.00,000.00,018.8,018.0,000.0,027.2,020.0,8.1,0000.0,0001.11,0000.60,0000.46
2023-12-02 20:02:00,SystemResetWarning,0822.2,5.00,000.00,018.8,018.0,000.0,027.2,020.0,8.0,0000.0,0001.12,0000.61,0000.46
2023-12-02 20:03:00,SystemResetWarning,0822.2,4.99,000.00,018.8,018.0,000.0,027.2,020.0,8.1,0000.0,0001.12,0000.61,0000.46
2023-12-02 20:04:00,SystemResetWarning,0822.3,4.99,000.00,018.8,018.0,000.0,027.2,020.0,7.6,0000.0,0001.08,0000.60,0000.46
2023-12-02 20:05:00,SystemResetWarning,0822.2,5.00,000.00,018.8,018.0,000.0,027.2,020.0,7.8,0000.0,0001.24,0000.63,0000.46
2023-12-02 20:06:00,SystemResetWarning,0822.2,5.01,000.00,018.8,018.0,000.0,027.2,020.0,8.2,0000.0,0001.27,0000.64,0000.46
2023-12-02 20:07:00,SystemResetWarning,0822.2,5.01,000.00,018.8,018.0,000.0,027.2,020.0,8.1,0000.0,0001.27,0000.64,0000.45
2023-12-02 20:08:00,SystemResetWarning,0822.3,5.00,000.00,018.8,018.0,000.0,027.2,020.0,8.1,0000.0,0001.11,0000.61,0000.44
2023-12-02 20:09:00,SystemResetWarning,0822.2,5.00,000.00,018.8,018.0,000.0,027.2,020.0,7.9,0000.0,0001.23,0000.64,0000.43
2023-12-02 20:10:00,SystemResetWarning,0822.2,4.99,000.00,018.8,018.0,000.0,027.2,020.0,8.0,0000.0,0001.23,0000.64,0000.42
2023-12-02 20:11:00,SystemResetWarning,0822.2,5.00,000.00,018.8,018.0,000.0,027.2,020.0,8.2,0000.0,0001.23,0000.64,0000.41
2023-12-02 20:12:00,SystemResetWarning,0822.2,5.00,000.00,018.8,018.1,000.0,027.2,020.0,8.5,0000.0,0001.30,0000.66,0000.40
2023-12-02 20:13:00,SystemResetWarning,0822.2,5.01,000.00,018.8,018.1,000.0,027.2,020.0,8.6,0000.0,0001.28,0000.65,0000.38
2023-12-02 20:14:00,SystemResetWarning,0822.1,5.00,000.00,018.8,018.1,000.0,027.2,020.0,8.3,0000.0,0001.40,0000.64,0000.38
2023-12-02 20:15:00,SystemResetWarning,0822.2,5.00,000.00,018.8,018.0,000.0,027.2,020.0,8.2,0000.0,0001.64,0000.63,0000.37
2023-12-02 20:16:00,SystemResetWarning,0822.2,4.99,000.00,018.8,018.0,000.0,027.2,020.0,8.7,0000.0,0001.53,0000.61,0000.36
2023-12-02 20:17:00,SystemResetWarning,0822.3,4.99,000.00,018.8,018.0,000.0,027.2,020.0,8.3,0000.0,0001.50,0000.61,0000.36
2023-12-02 20:18:00,SystemResetWarning,0822.2,5.00,000.00,018.8,018.0,000.0,027.2,020.0,8.1,0000.0,0001.57,0000.64,0000.36
2023-12-02 20:19:00,SystemResetWarning,0822.1,5.00,000.00,018.8,018.1,000.0,027.2,020.0,8.2,0000.0,0001.59,0000.64,0000.36
2023-12-02 20:20:00,SystemResetWarning,0822.1,5.00,000.00,018.9,018.1,000.0,027.2,020.1,8.5,0000.0,0001.59,0000.62,0000.37
2023-12-02 20:21:00,SystemResetWarning,0822.0,5.00,000.00,018.9,018.1,000.0,027.2,020.0,8.8,0000.0,0001.65,0000.65,0000.37
2023-12-02 20:22:00,SystemResetWarning,0822.0,5.00,000.00,018.9,018.1,000.0,027.2,020.0,8.4,0000.0,0001.69,0000.66,0000.38
2023-12-02 20:23:00,SystemResetWarning,0822.0,5.00,000.00,018.8,018.1,000.0,027.2,020.0,8.3,0000.0,0001.63,0000.63,0000.38
2023-12-02 20:24:00,SystemResetWarning,0822.0,5.00,000.00,018.9,018.1,000.0,027.2,020.0,8.1,0000.0,0001.61,0000.62,0000.38
2023-12-02 20:25:00,SystemResetWarning,0822.0,5.00,000.00,018.9,018.1,000.0,027.2,020.1,8.2,0000.0,0001.44,0000.61,0000.38
2023-12-02 20:26:00,SystemResetWarning,0822.1,5.01,000.00,018.9,018.1,000.0,027.2,020.1,8.2,0000.0,0001.47,0000.62,0000.37
2023-12-02 20:27:00,SystemResetWarning,0822.0,4.99,000.00,018.9,018.1,000.0,027.2,020.1,8.5,0000.0,0002.13,0000.62,0000.37
2023-12-02 20:28:00,SystemResetWarning,0821.9,5.00,000.00,018.9,018.1,000.0,027.2,020.1,8.5,0000.0,0002.18,0000.61,0000.37
2023-12-02 20:29:00,SystemResetWarning,0822.0,4.99,000.00,018.9,018.2,000.0,027.2,020.2,7.9,0000.0,0002.14,0000.59,0000.38
2023-12-02 20:30:00,SystemResetWarning,0822.0,5.00,000.00,018.9,018.2,000.0,027.2,020.2,8.2,0000.0,0002.09,0000.59,0000.38
2023-12-02 20:31:00,SystemResetWarning,0821.9,5.01,000.00,018.9,018.2,000.0,027.2,020.1,8.4,0000.0,0002.01,0000.58,0000.37
2023-12-02 20:32:00,SystemResetWarning,0822.0,5.00,000.00,018.9,018.2,000.0,027.2,020.2,8.2,0000.0,0002.10,0000.60,0000.38
2023-12-02 20:33:00,SystemResetWarning,0822.0,5.00,000.00,018.9,018.2,000.0,027.2,020.2,8.2,0000.0,0002.85,0000.63,0000.39
2023-12-02 20:34:00,SystemResetWarning,0822.0,5.01,000.00,018.9,018.3,000.0,027.2,020.2,7.7,0000.0,0003.78,0000.66,0000.39
2023-12-02 20:35:00,SystemResetWarning,0821.9,5.00,000.00,019.0,018.3,000.0,027.2,020.2,7.9,0000.0,0003.78,0000.66,0000.40
2023-12-02 20:36:00,SystemResetWarning,0821.9,5.00,000.00,019.0,018.3,000.0,027.2,020.2,8.4,0000.0,0003.83,0000.67,0000.41
2023-12-02 20:37:00,SystemResetWarning,0821.9,4.99,000.00,019.0,018.3,000.0,027.3,020.2,8.2,0000.0,0003.60,0000.68,0000.41
2023-12-02 20:38:00,SystemResetWarning,0822.0,5.00,000.00,019.0,018.3,000.0,027.3,020.2,8.4,0000.0,0002.99,0000.69,0000.41
2023-12-02 20:39:00,SystemResetWarning,0821.9,4.99,000.00,019.0,018.3,000.0,027.3,020.2,8.6,0000.0,0002.95,0000.69,0000.41
2023-12-02 20:40:00,SystemResetWarning,0822.0,5.01,000.00,019.0,018.3,000.0,027.3,020.2,8.1,0000.0,0004.66,0000.70,0000.42
2023-12-02 20:41:00,SystemResetWarning,0821.9,5.01,000.00,019.0,018.3,000.0,027.3,020.2,8.3,0000.0,0004.77,0000.71,0000.42
2023-12-02 20:42:00,SystemResetWarning,0821.9,5.01,000.00,019.0,018.3,000.0,027.3,020.3,8.5,0000.0,0004.74,0000.71,0000.43
2023-12-02 20:43:00,SystemResetWarning,0821.8,5.00,000.00,019.0,018.4,000.0,027.3,020.3,8.2,0000.0,0004.55,0000.65,0000.41
2023-12-02 20:44:00,SystemResetWarning,0821.8,4.99,000.00,019.0,018.4,000.0,027.3,020.3,8.5,0000.0,0003.75,0000.61,0000.41
2023-12-02 20:45:00,SystemResetWarning,0821.8,4.99,000.00,019.1,018.4,000.0,027.3,020.3,8.2,0000.0,0002.83,0000.58,0000.40
2023-12-02 20:46:00,SystemResetWarning,0821.7,5.01,000.00,019.1,018.4,000.0,027.3,020.2,8.2,0000.0,0002.79,0000.57,0000.40
2023-12-02 20:47:00,SystemResetWarning,0821.8,5.01,000.00,019.1,018.4,000.0,027.3,020.3,8.3,0000.0,0002.77,0000.57,0000.40
2023-12-02 20:48:00,SystemResetWarning,0821.8,4.99,000.00,019.1,018.4,000.0,027.3,020.3,8.8,0000.0,0002.79,0000.60,0000.41
2023-12-02 20:49:00,SystemResetWarning,0821.7,4.99,000.00,019.1,018.4,000.0,027.3,020.3,8.8,0000.0,0002.77,0000.60,0000.42
2023-12-02 20:50:00,SystemResetWarning,0821.7,5.00,000.00,019.1,018.4,000.0,027.3,020.3,8.5,0000.0,0002.73,0000.59,0000.43
2023-12-02 20:51:00,SystemResetWarning,0821.7,5.00,000.00,019.1,018.4,000.0,027.3,020.3,8.4,0000.0,0001.24,0000.59,0000.43
2023-12-02 20:52:00,SystemResetWarning,0821.7,5.00,000.00,019.1,018.4,000.0,027.4,020.3,8.7,0000.0,0001.09,0000.61,0000.43
2023-12-02 20:53:00,SystemResetWarning,0822.0,5.00,000.00,019.1,018.3,000.0,027.4,020.3,8.7,0000.0,0001.17,0000.63,0000.43
2023-12-02 20:54:00,SystemResetWarning,0821.8,5.01,000.00,019.1,018.3,000.0,027.4,020.2,8.8,0000.0,0001.19,0000.65,0000.44
2023-12-02 20:55:00,SystemResetWarning,0821.9,5.01,000.00,019.1,018.3,000.0,027.4,020.2,9.0,0000.0,0001.31,0000.67,0000.44
2023-12-02 20:56:00,SystemResetWarning,0821.7,5.01,000.00,019.0,018.3,000.0,027.4,020.2,8.8,0000.0,0001.47,0000.71,0000.46
2023-12-02 20:57:00,SystemResetWarning,0821.6,4.99,000.00,019.0,018.3,000.0,027.4,020.2,8.7,0000.0,0001.54,0000.74,0000.46
2023-12-02 20:58:00,SystemResetWarning,0821.6,5.00,000.00,019.1,018.3,000.0,027.4,020.3,8.7,0000.0,0001.67,0000.76,0000.47
2023-12-02 20:59:00,SystemResetWarning,0821.6,5.00,000.00,019.1,018.3,000.0,027.4,020.3,8.8,0000.0,0001.64,0000.74,0000.47
